Latest Weather Observations for Perisher Valley

IDN60901

Issued at 7:01 pm EDT Sunday 14 February 2016 (issued every 10 minutes, with the page automatically refreshed every 10 minutes)

About weather observations | Map of Canberra area stations | Latest observations for Canberra area | Other Formats
Station Details ID: 071075 Name: PERISHER VALLEY AWS Lat: -36.41 Lon: 148.41 Height: 1738.0 m
Data from the previous 72 hours. | See also: Recent months at Perisher Valley
Date/Time
EDT
Tmp

°C
App
Tmp
°C
Dew
Point
°C
Rel
Hum
%
Delta-T

°C
Wind Press
QNH
hPa
Press
MSL
hPa
Rain
since
9 am
mm
Dir
 
Spd
km/h
Gust
km/h
Spd
kts
Gust
kts
14/07:00pm 16.3 13.9 2.0 38 7.0 WNW 4 17 2 9 - - 0.0
14/06:30pm 17.0 13.8 -0.2 31 8.1 NW 6 20 3 11 - - 0.0
14/06:00pm 17.2 12.2 -1.0 29 8.5 WNW 15 35 8 19 - - 0.0
14/05:30pm 17.7 12.0 -0.5 29 8.6 WNW 19 39 10 21 - - 0.0
14/05:00pm 17.6 9.6 -2.1 26 9.0 WNW 30 48 16 26 - - 0.0
14/04:41pm 17.8 10.4 -0.5 29 8.7 WNW 28 54 15 29 - - 0.0
14/04:30pm 18.0 11.1 0.2 30 8.6 WNW 26 54 14 29 - - 0.0
14/04:00pm 18.1 10.8 0.3 30 8.6 WNW 28 50 15 27 - - 0.0
14/03:30pm 18.1 11.1 -0.7 28 8.9 WNW 26 61 14 33 - - 0.0
14/03:00pm 18.1 9.9 -1.2 27 9.0 W 32 50 17 27 - - 0.0
14/02:30pm 18.0 10.0 0.6 31 8.4 WNW 32 57 17 31 - - 0.0
14/02:12pm 17.7 11.0 3.9 40 7.1 WNW 28 57 15 31 - - 0.0
14/02:00pm 17.5 11.3 4.1 41 6.9 WNW 26 52 14 28 - - 0.0
14/01:30pm 17.1 9.5 3.8 41 6.8 WNW 33 59 18 32 - - 0.0
14/01:00pm 16.8 8.5 4.2 43 6.5 W 37 69 20 37 - - 0.0
14/12:36pm 16.9 10.1 3.2 40 6.9 WNW 28 61 15 33 - - 0.0
14/12:30pm 17.2 11.0 4.2 42 6.7 WNW 26 61 14 33 - - 0.0
14/12:00pm 16.8 9.8 2.0 37 7.3 W 28 59 15 32 - - 0.0
14/11:59am 16.9 9.8 1.4 35 7.6 W 28 59 15 32 - - 0.0
14/11:30am 17.2 10.8 0.8 33 7.9 W 24 48 13 26 - - 0.0
14/11:00am 16.5 8.9 2.9 40 6.8 WNW 32 57 17 31 - - 0.0
14/10:30am 16.4 8.8 2.8 40 6.8 WNW 32 54 17 29 - - 0.0
14/10:00am 15.9 7.6 4.0 45 6.1 WNW 37 61 20 33 - - 0.0
14/09:30am 16.0 7.4 2.8 41 6.6 WNW 37 59 20 32 - - 0.0
14/09:00am 15.8 8.1 3.6 44 6.2 WNW 33 63 18 34 - - 0.0
14/08:36am 15.4 7.9 3.5 45 6.0 WNW 32 50 17 27 - - 0.0
14/08:30am 15.4 7.4 3.9 46 5.8 WNW 35 54 19 29 - - 0.0
14/08:00am 15.1 7.5 3.0 44 6.0 WNW 32 54 17 29 - - 0.0
14/07:30am 14.8 7.5 2.4 43 6.1 WNW 30 52 16 28 - - 0.0
14/07:22am 14.8 7.9 2.4 43 6.1 WNW 28 52 15 28 - - 0.0
14/07:00am 14.6 8.0 1.8 42 6.2 WNW 26 43 14 23 - - 0.0
14/06:30am 14.5 8.2 1.4 41 6.3 WNW 24 48 13 26 - - 0.0
14/06:13am 14.8 7.7 1.3 40 6.5 WNW 28 48 15 26 - - 0.0
14/06:00am 14.9 8.9 1.1 39 6.6 WNW 22 41 12 22 - - 0.0
14/05:30am 15.4 9.4 0.8 37 7.0 WNW 22 43 12 23 - - 0.0
14/05:00am 15.3 8.2 1.1 38 6.8 WNW 28 46 15 25 - - 0.0
14/04:38am 15.4 8.2 0.8 37 7.0 WNW 28 48 15 26 - - 0.0
14/04:30am 15.6 10.0 1.0 37 7.0 WNW 20 44 11 24 - - 0.0
14/04:00am 15.8 10.3 0.8 36 7.2 W 19 44 10 24 - - 0.0
14/03:30am 16.1 11.0 0.7 35 7.4 W 17 43 9 23 - - 0.0
14/03:00am 15.9 11.2 1.2 37 7.1 W 15 35 8 19 - - 0.0
14/02:30am 16.2 11.9 1.1 36 7.3 W 13 30 7 16 - - 0.0
14/02:00am 16.9 11.3 1.4 35 7.6 W 20 44 11 24 - - 0.0
14/01:30am 16.6 12.1 2.2 38 7.1 WNW 15 41 8 22 - - 0.0
14/01:00am 17.1 13.1 2.7 38 7.2 WNW 13 41 7 22 - - 0.0
14/12:30am 17.2 14.1 3.5 40 7.0 WNW 9 26 5 14 - - 0.0
14/12:00am 17.5 14.0 3.4 39 7.2 NW 11 26 6 14 - - 0.0
 
Date/Time
EDT
Tmp

°C
App
Tmp
°C
Dew
Point
°C
Rel
Hum
%
Delta-T

°C
Wind Press
QNH
hPa
Press
MSL
hPa
Rain
since
9 am
mm
Dir
 
Spd
km/h
Gust
km/h
Spd
kts
Gust
kts
13/11:30pm 16.8 14.8 4.2 43 6.5 NNW 4 13 2 7 - - 0.0
13/11:00pm 16.6 15.1 4.9 46 6.1 NNW 2 7 1 4 - - 0.0
13/10:30pm 17.2 14.8 5.2 45 6.3 WNW 7 17 4 9 - - 0.0
13/10:00pm 17.5 15.3 5.1 44 6.5 WNW 6 19 3 10 - - 0.0
13/09:30pm 17.6 15.0 5.9 46 6.3 W 9 24 5 13 - - 0.0
13/09:00pm 17.6 15.4 6.2 47 6.1 W 7 17 4 9 - - 0.0
13/08:30pm 17.7 14.5 6.9 49 5.9 W 13 26 7 14 - - 0.0
13/08:00pm 18.0 16.1 6.8 48 6.1 WNW 6 19 3 10 - - 0.0
13/07:30pm 18.5 14.6 7.0 47 6.3 W 17 33 9 18 - - 0.0
13/07:00pm 19.5 17.3 7.9 47 6.5 W 9 32 5 17 - - 0.0
13/06:30pm 19.8 15.7 8.5 48 6.4 W 20 35 11 19 - - 0.0
13/06:00pm 20.3 17.5 8.6 47 6.7 W 13 32 7 17 - - 0.0
13/05:30pm 19.8 16.6 8.5 48 6.4 W 15 32 8 17 - - 0.0
13/05:00pm 18.9 14.3 8.0 49 6.1 W 22 35 12 19 - - 0.0
13/04:30pm 19.1 15.4 7.8 48 6.3 W 17 30 9 16 - - 0.0
13/04:00pm 20.0 15.0 8.0 46 6.8 W 24 44 13 24 - - 0.0
13/03:30pm 20.0 15.2 4.9 37 8.0 W 19 39 10 21 - - 0.0
13/03:00pm 19.2 12.9 5.6 41 7.3 W 28 44 15 24 - - 0.0
13/02:30pm 19.7 14.9 5.4 39 7.7 W 20 35 11 19 - - 0.0
13/02:00pm 19.0 12.0 4.0 37 7.8 W 30 46 16 25 - - 0.0
13/01:58pm 19.1 12.3 3.3 35 8.1 W 28 46 15 25 - - 0.0
13/01:30pm 19.4 13.8 3.2 34 8.3 W 22 41 12 22 - - 0.0
13/01:00pm 19.0 13.6 6.2 43 6.9 W 24 52 13 28 - - 0.0
13/12:43pm 18.6 12.0 4.4 39 7.4 WNW 28 48 15 26 - - 0.0
13/12:30pm 18.8 13.2 5.6 42 7.1 WNW 24 39 13 21 - - 0.0
13/12:12pm 18.7 12.3 5.2 41 7.2 WNW 28 52 15 28 - - 0.0
13/12:00pm 18.9 13.8 6.1 43 6.9 W 22 41 12 22 - - 0.0
13/11:30am 18.4 15.3 8.7 53 5.5 WNW 15 33 8 18 - - 0.0
13/11:00am 17.5 13.7 9.2 58 4.7 W 19 37 10 20 - - 0.0
13/10:30am 16.3 11.5 9.0 62 4.1 W 24 37 13 20 - - 0.0
13/10:00am 16.9 12.4 8.6 58 4.7 WNW 22 35 12 19 - - 0.0
13/09:30am 16.8 15.0 9.5 62 4.2 WNW 9 20 5 11 - - 0.0
13/09:00am 16.1 13.9 9.5 65 3.7 WSW 11 26 6 14 - - 0.0
13/08:30am 15.0 11.5 8.7 66 3.5 WSW 17 35 9 19 - - 0.0
13/08:00am 14.7 11.5 8.4 66 3.5 WSW 15 32 8 17 - - 0.0
13/07:30am 14.6 10.9 8.1 65 3.6 W 17 39 9 21 - - 0.0
13/07:00am 14.1 8.5 7.2 63 3.7 W 26 41 14 22 - - 0.0
13/06:30am 14.0 9.1 7.1 63 3.7 W 22 37 12 20 - - 0.0
13/06:29am 14.0 9.5 7.1 63 3.7 W 20 37 11 20 - - 0.0
13/06:00am 12.6 10.6 7.1 69 2.9 W 7 19 4 10 - - 0.0
13/05:30am 12.1 10.0 6.6 69 2.9 WSW 7 11 4 6 - - 0.0
13/05:00am 11.7 9.4 5.6 66 3.1 WSW 7 22 4 12 - - 0.0
13/04:30am 13.2 10.2 6.1 62 3.7 W 11 20 6 11 - - 0.0
13/04:00am 12.8 10.2 5.9 63 3.6 W 9 24 5 13 - - 0.0
13/03:30am 10.2 8.3 4.8 69 2.7 NNW 4 7 2 4 - - 0.0
13/03:00am 7.7 6.1 4.5 80 1.6 NW 2 6 1 3 - - 0.0
13/02:30am 8.2 6.6 4.6 78 1.8 W 2 6 1 3 - - 0.0
13/02:00am 8.3 7.0 4.3 76 1.9 CALM 0 2 0 1 - - 0.0
13/01:30am 9.5 7.2 4.9 73 2.3 W 6 9 3 5 - - 0.0
13/01:00am 7.5 5.5 4.3 80 1.5 WSW 4 7 2 4 - - 0.0
13/12:30am 7.1 5.4 3.9 80 1.5 SSW 2 2 1 1 - - 0.0
13/12:00am 7.9 6.2 3.9 76 1.9 SSW 2 4 1 2 - - 0.0
 
Date/Time
EDT
Tmp

°C
App
Tmp
°C
Dew
Point
°C
Rel
Hum
%
Delta-T

°C
Wind Press
QNH
hPa
Press
MSL
hPa
Rain
since
9 am
mm
Dir
 
Spd
km/h
Gust
km/h
Spd
kts
Gust
kts
12/11:30pm 8.7 7.4 4.3 74 2.1 CALM 0 2 0 1 - - 0.0
12/11:00pm 9.0 7.6 3.6 69 2.6 CALM 0 0 0 0 - - 0.0
12/10:30pm 11.6 9.9 3.9 59 3.8 NW 2 4 1 2 - - 0.0
12/10:00pm 13.2 10.8 4.4 55 4.4 NW 6 9 3 5 - - 0.0
12/09:30pm 12.6 10.7 5.1 60 3.8 WNW 4 7 2 4 - - 0.0
12/09:00pm 13.2 11.0 5.4 59 4.0 WNW 6 9 3 5 - - 0.0
12/08:30pm 13.5 11.3 5.2 57 4.3 WNW 6 9 3 5 - - 0.0
12/08:00pm 15.3 12.8 5.0 50 5.3 WNW 7 11 4 6 - - 0.0
12/07:30pm 16.0 13.9 5.6 50 5.5 W 6 13 3 7 - - 0.0
12/07:00pm 18.5 16.9 6.4 45 6.6 W 4 9 2 5 - - 0.0
12/06:30pm 18.5 15.9 6.0 44 6.7 W 9 19 5 10 - - 0.0
12/06:00pm 18.8 16.2 6.0 43 6.9 W 9 17 5 9 - - 0.0
12/05:30pm 19.6 17.4 6.0 41 7.4 WNW 7 20 4 11 - - 0.0
12/05:00pm 20.0 17.4 4.1 35 8.3 W 7 13 4 7 - - 0.0
12/04:30pm 19.9 17.0 4.4 36 8.2 W 9 19 5 10 - - 0.0
12/04:00pm 19.5 16.3 3.2 34 8.4 WSW 9 19 5 10 - - 0.0
12/03:30pm 19.3 15.9 3.9 36 8.0 W 11 22 6 12 - - 0.0
12/03:00pm 18.9 15.4 3.5 36 7.9 WNW 11 24 6 13 - - 0.0
12/02:30pm 19.0 15.4 2.8 34 8.2 W 11 24 6 13 - - 0.0
12/02:00pm 19.4 16.1 2.3 32 8.6 WNW 9 26 5 14 - - 0.0
12/01:30pm 19.2 15.5 2.6 33 8.4 W 11 22 6 12 - - 0.0
12/01:00pm 19.2 15.5 2.1 32 8.6 NW 11 26 6 14 - - 0.0
12/12:30pm 19.2 16.1 3.8 36 8.0 WNW 9 22 5 12 - - 0.0
12/12:00pm 18.8 15.2 3.0 35 8.1 WSW 11 22 6 12 - - 0.0
12/11:30am 18.7 15.2 3.3 36 7.9 SW 11 24 6 13 - - 0.0
12/11:00am 19.0 15.6 4.0 37 7.8 SW 11 24 6 13 - - 0.0
12/10:30am 17.0 14.5 5.0 45 6.3 SW 7 28 4 15 - - 0.0
12/10:00am 17.4 15.1 5.7 46 6.2 SW 7 17 4 9 - - 0.0
12/09:30am 16.9 15.4 7.0 52 5.4 S 4 9 2 5 - - 0.0
12/09:00am 15.7 13.6 5.9 52 5.2 WNW 6 11 3 6 - - 0.6
12/08:30am 14.5 13.8 8.5 67 3.3 W 2 7 1 4 - - 0.6
12/08:00am 12.2 11.7 9.2 82 1.7 SW 2 7 1 4 - - 0.6
12/07:30am 8.9 7.9 7.2 89 0.9 SW 2 6 1 3 - - 0.6
12/07:00am 7.2 5.7 5.0 86 1.1 WSW 2 7 1 4 - - 0.6
12/06:30am 8.8 6.7 5.9 82 1.5 WNW 6 9 3 5 - - 0.6
12/06:00am 10.2 8.6 8.0 86 1.2 WNW 6 11 3 6 - - 0.6
12/05:30am 6.8 5.0 5.4 91 0.7 WNW 4 7 2 4 - - 0.6
12/05:00am 6.2 4.7 4.8 91 0.7 W 2 6 1 3 - - 0.6
12/04:30am 6.2 4.7 4.8 91 0.7 W 2 6 1 3 - - 0.6
12/04:00am 6.0 4.4 4.6 91 0.7 SSW 2 6 1 3 - - 0.6
12/03:30am 5.7 4.5 4.5 92 0.6 CALM 0 2 0 1 - - 0.6
12/03:00am 5.8 4.7 4.9 94 0.4 CALM 0 4 0 2 - - 0.6
12/02:30am 5.7 4.6 5.1 96 0.3 CALM 0 4 0 2 - - 0.6
12/02:00am 6.5 5.6 5.9 96 0.3 CALM 0 0 0 0 - - 0.6
12/01:30am 6.9 6.0 6.2 95 0.4 CALM 0 2 0 1 - - 0.6
12/01:00am 7.1 5.8 5.9 92 0.6 NNE 2 4 1 2 - - 0.6
12/12:30am 6.2 4.2 4.4 88 0.9 W 4 7 2 4 - - 0.6
12/12:00am 8.4 7.5 6.0 85 1.2 CALM 0 2 0 1 - - 0.6
 
Date/Time
EDT
Tmp

°C
App
Tmp
°C
Dew
Point
°C
Rel
Hum
%
Delta-T

°C
Wind Press
QNH
hPa
Press
MSL
hPa
Rain
since
9 am
mm
Dir
 
Spd
km/h
Gust
km/h
Spd
kts
Gust
kts
11/11:30pm 9.6 9.0 7.5 87 1.1 CALM 0 2 0 1 - - 0.6
11/11:00pm 11.2 10.1 8.6 84 1.4 NNW 4 7 2 4 - - 0.6
11/10:30pm 11.6 11.0 9.0 84 1.4 E 2 13 1 7 - - 0.6
11/10:00pm 12.0 11.0 10.2 89 1.0 N 6 13 3 7 - - 0.4
11/09:30pm 11.9 11.3 10.5 91 0.8 NNE 4 7 2 4 - - 0.4
11/09:00pm 12.4 11.8 10.5 88 1.1 SSE 4 17 2 9 - - 0.2
11/08:30pm 13.0 12.2 9.8 81 1.8 ESE 4 6 2 3 - - 0.0
11/08:00pm 13.5 12.4 10.5 82 1.7 NNE 7 11 4 6 - - 0.0
11/07:30pm 14.0 12.3 11.3 84 1.6 NE 11 19 6 10 - - 0.0

Latest Capital City Observations: Canberra | Sydney | Melbourne | Brisbane | Adelaide | Perth | Hobart | Darwin

Other Formats:

Comma delimited format used in spreadsheet applications
http://www.bom.gov.au/fwo/IDN60903/IDN60903.94915.axf

JavaScript Object Notation format (JSON) in row-major order
http://www.bom.gov.au/fwo/IDN60903/IDN60903.94915.json